Tracking 19827 objects as of 21-Aug-2019
HD Live streaming from Space Station
objects crossing your sky now

COSMOS 2251 DEB

Track COSMOS 2251 DEB now!
10-day predictions


NORAD ID: 37305
Int'l Code: 1993-036BJV
Perigee: 764.1 km
Apogee: 844.7 km
Inclination: 73.9 °
Period: 100.8 minutes
Semi major axis: 7175 km
RCS: 0.0061 m2 (small)
Launch date: June 16, 1993
Source: Commonwealth of Independent States (former USSR) (CIS)
Launch site: PLESETSK MISSILE AND SPACE COMPLEX (PKMTR)

Note: This is SATELLITE DEBRIS
aabbcc
Your satellite tracking list
Your tracking list is empty




NASA's NSSDC Master Catalog

Two Line Element Set (TLE):
1 37305U 93036BJV 19224.35635201 +.00000198 +00000-0 +88713-4 0  9991
2 37305 073.8696 225.0278 0056195 283.1683 076.3198 14.28345994337693
Source of the keplerian elements: AFSPC